EWG25H EHAM-EHAM

Flight info

Callsign EWG25H
Flight time 0h 8m
Altitude 33000
Route EDUPO Z739 MISGO DCT DIXAT DIXAT1A
Aircraft A320/M-SDE3FGHIRWY/LB1

Departure

Time 2026-05-07 15:10
Airport Amsterdam Airport Schiphol (EHAM)

Arrival

Time 2026-05-07 15:19
Airport Amsterdam Airport Schiphol (EHAM)
Time Latitude Longitude Altitude Speed Heading
2026-05-07 14:58 51.92759 6.30619 22056 ft 329 kts
2026-05-07 14:59 51.95032 6.30511 22060 ft 327 kts 345°
2026-05-07 14:59 51.97116 6.29133 22057 ft 322 kts 324°
2026-05-07 14:59 51.98874 6.26914 22057 ft 319 kts 319°
2026-05-07 14:59 52.00596 6.24656 22053 ft 318 kts 319°
2026-05-07 15:00 52.02295 6.22433 22054 ft 316 kts 319°
2026-05-07 15:00 52.04002 6.20189 22057 ft 314 kts 319°
2026-05-07 15:00 52.05693 6.17953 22057 ft 313 kts 319°
2026-05-07 15:00 52.07378 6.15723 22057 ft 311 kts 319°
2026-05-07 15:01 52.09054 6.13503 22059 ft 310 kts 319°
2026-05-07 15:01 52.10720 6.11290 22056 ft 309 kts 319°
2026-05-07 15:01 52.12381 6.09082 22056 ft 307 kts 319°
2026-05-07 15:01 52.14034 6.06887 22057 ft 306 kts 319°
2026-05-07 15:02 52.15689 6.04709 22057 ft 305 kts 319°
2026-05-07 15:02 52.17338 6.02552 22057 ft 304 kts 320°
2026-05-07 15:02 52.18986 6.00396 21993 ft 303 kts 319°
2026-05-07 15:02 52.20616 5.98229 21651 ft 301 kts 319°
2026-05-07 15:03 52.22226 5.96056 21301 ft 299 kts 319°
2026-05-07 15:03 52.23821 5.93895 20965 ft 297 kts 319°
2026-05-07 15:03 52.25413 5.91745 20634 ft 295 kts 319°
2026-05-07 15:03 52.26990 5.89617 20311 ft 293 kts 319°
2026-05-07 15:04 52.28561 5.87500 19965 ft 292 kts 319°
2026-05-07 15:04 52.30126 5.85400 19643 ft 290 kts 319°
2026-05-07 15:04 52.31678 5.83312 19318 ft 289 kts 319°
2026-05-07 15:04 52.33228 5.81219 18982 ft 288 kts 319°
2026-05-07 15:05 52.34768 5.79136 18667 ft 287 kts 319°
2026-05-07 15:05 52.36302 5.77060 18376 ft 285 kts 319°
2026-05-07 15:05 52.37822 5.75001 18037 ft 283 kts 319°
2026-05-07 15:05 52.39338 5.72948 17693 ft 282 kts 319°
2026-05-07 15:06 52.40847 5.70902 17355 ft 280 kts 319°
2026-05-07 15:06 52.42344 5.68869 17019 ft 279 kts 319°
2026-05-07 15:06 52.43837 5.66844 16689 ft 278 kts 319°
2026-05-07 15:06 52.45327 5.64824 16372 ft 277 kts 319°
2026-05-07 15:07 52.46812 5.62807 16064 ft 276 kts 319°
2026-05-07 15:07 52.48137 5.60568 15756 ft 273 kts 302°
2026-05-07 15:07 52.48887 5.57754 15466 ft 269 kts 280°
2026-05-07 15:07 52.49149 5.54711 15121 ft 270 kts 277°
2026-05-07 15:08 52.49381 5.51664 14810 ft 267 kts 276°
2026-05-07 15:08 52.49604 5.48658 14308 ft 265 kts 276°
2026-05-07 15:08 52.49819 5.45695 13794 ft 264 kts 276°
2026-05-07 15:08 52.50034 5.42715 13271 ft 262 kts 276°
2026-05-07 15:09 52.50247 5.39751 12744 ft 259 kts 275°
2026-05-07 15:09 52.50457 5.36833 12224 ft 256 kts 275°
2026-05-07 15:09 52.50663 5.33927 11552 ft 260 kts 275°
2026-05-07 15:09 52.50876 5.30890 10583 ft 275 kts 276°
2026-05-07 15:10 52.51096 5.27740 9853 ft 279 kts 275°
2026-05-07 15:10 52.51318 5.24582 9154 ft 278 kts 276°
2026-05-07 15:10 52.51541 5.21425 8485 ft 277 kts 276°
2026-05-07 15:10 52.51763 5.18283 7845 ft 275 kts 276°
2026-05-07 15:11 52.51984 5.15173 7217 ft 273 kts 275°
2026-05-07 15:11 52.52200 5.12081 6599 ft 272 kts 276°
2026-05-07 15:11 52.52411 5.09012 5961 ft 270 kts 275°
2026-05-07 15:11 52.52565 5.05948 5326 ft 268 kts 273°
2026-05-07 15:12 52.52675 5.02910 4727 ft 265 kts 273°
2026-05-07 15:12 52.52765 4.99898 4114 ft 263 kts 273°
2026-05-07 15:12 52.52841 4.96917 3522 ft 260 kts 273°
2026-05-07 15:12 52.52903 4.93955 2865 ft 260 kts 272°
2026-05-07 15:13 52.52963 4.90992 2257 ft 259 kts 272°
2026-05-07 15:13 52.53019 4.88048 2027 ft 254 kts 272°
2026-05-07 15:13 52.53068 4.85222 2002 ft 239 kts 272°
2026-05-07 15:13 52.53106 4.82569 2008 ft 225 kts 273°
2026-05-07 15:14 52.53101 4.80082 2008 ft 212 kts 262°
2026-05-07 15:14 52.52521 4.77977 2001 ft 198 kts 230°
2026-05-07 15:14 52.51619 4.76402 1993 ft 185 kts 224°
2026-05-07 15:14 52.50713 4.74980 1999 ft 181 kts 224°
2026-05-07 15:15 52.49776 4.73510 2022 ft 189 kts 219°
2026-05-07 15:15 52.48623 4.72445 2023 ft 192 kts 193°
2026-05-07 15:15 52.47320 4.72189 2033 ft 183 kts 182°
2026-05-07 15:15 52.46093 4.72083 1929 ft 174 kts 180°
2026-05-07 15:16 52.44874 4.71971 1776 ft 173 kts 181°
2026-05-07 15:16 52.43724 4.71873 1530 ft 159 kts 182°
2026-05-07 15:16 52.42639 4.71775 1253 ft 154 kts 182°
2026-05-07 15:16 52.41595 4.71682 999 ft 148 kts 185°
2026-05-07 15:17 52.40567 4.71596 863 ft 147 kts 184°
2026-05-07 15:17 52.39539 4.71499 677 ft 148 kts 184°
2026-05-07 15:17 52.38518 4.71401 540 ft 149 kts 185°
2026-05-07 15:17 52.37464 4.71300 386 ft 155 kts 184°
2026-05-07 15:18 52.36397 4.71220 120 ft 151 kts 180°
2026-05-07 15:18 52.35387 4.71129 -1 ft 136 kts 182°
2026-05-07 15:18 52.34582 4.71053 -1 ft 95 kts 183°
2026-05-07 15:18 52.33986 4.70994 -1 ft 76 kts 184°
2026-05-07 15:19 52.33531 4.70954 -1 ft 47 kts 182°
2026-05-07 15:19 52.33317 4.71083 -2 ft 31 kts 129°
2026-05-07 15:19 52.33183 4.71330 -1 ft 28 kts 133°
2026-05-07 15:19 52.33054 4.71572 -1 ft 29 kts 131°
2026-05-07 15:20 52.32902 4.71843 -1 ft 35 kts 133°
2026-05-07 15:20 52.32837 4.72157 -1 ft 26 kts 90°
2026-05-07 15:20 52.32751 4.72389 -1 ft 24 kts 133°
2026-05-07 15:20 52.32617 4.72609 -1 ft 31 kts 138°
2026-05-07 15:21 52.32431 4.72868 -1 ft 39 kts 139°
2026-05-07 15:21 52.32216 4.73175 -1 ft 40 kts 138°
2026-05-07 15:21 52.32057 4.73499 -1 ft 36 kts 99°
2026-05-07 15:21 52.32042 4.73899 -2 ft 35 kts 94°
2026-05-07 15:22 52.31986 4.74181 -1 ft 23 kts 158°
2026-05-07 15:22 52.31809 4.74179 -1 ft 30 kts 182°
2026-05-07 15:22 52.31573 4.74157 -1 ft 35 kts 184°
2026-05-07 15:22 52.31397 4.74199 -1 ft 20 kts 114°
2026-05-07 15:23 52.31395 4.74455 -1 ft 24 kts 87°
2026-05-07 15:23 52.31311 4.74592 -1 ft 20 kts 177°
2026-05-07 15:23 52.31225 4.74685 -1 ft 15 kts 93°
2026-05-07 15:23 52.31224 4.74759 -1 ft 0 kts 92°